This demonstration page uses our WeatherBlox Daily Observations layout. Learn more.

Left ArrowRight Arrow

41.12389, -100.76542

Hourly Observations for July 28, 2015

Temp ( °F °C ) Dew Point ( °F °C ) Humidity (%) Winds ( mph kmh ) Pressure ( in mb ) Visibility ( mi km ) Precip ( " mm )
12:53 am 00:53 Clear 80 26.7 67 19.4 64 64 SSE 14 22 29.61 1003 10 16 0.00 0.00
1:53 am 01:53 Clear 79 26.1 68 20 69 69 S 13 20 29.62 1003 10 16 0.00 0.00
2:53 am 02:53 Clear 79 26.1 68 20 69 69 NW 8 13 29.65 1004 10 16 0.00 0.00
3:53 am 03:53 Clear 73 22.8 68 20 84 84 Calm 29.67 1005 10 16 0.00 0.00
4:53 am 04:53 Clear 72 22.2 67 19.4 84 84 Calm 29.69 1005 10 16 0.00 0.00
5:53 am 05:53 Clear 73 22.8 59 15 62 62 NNW 14 22 29.73 1007 10 16 0.00 0.00
6:53 am 06:53 Sunny 68 20 59 15 73 73 N 17 28 29.80 1009 10 16 0.00 0.00
7:53 am 07:53 Sunny 67 19.4 48 8.9 51 51 N 17 28 29.83 1010 10 16 0.00 0.00
8:53 am 08:53 Sunny 69 20.6 50 10 51 51 NNW 14 22 29.89 1012 10 16 0.00 0.00
9:53 am 09:53 Sunny 74 23.3 53 11.7 48 48 NNW 12 19 29.89 1012 10 16 0.00 0.00
10:53 am 10:53 Sunny 76 24.4 53 11.7 45 45 N 15 24 29.91 1013 10 16 0.00 0.00
11:53 am 11:53 Sunny 78 25.6 47 8.3 33 33 N 14 22 29.92 1013 10 16 0.00 0.00
12:53 pm 12:53 Sunny 81 27.2 47 8.3 30 30 N 16 26 29.92 1013 10 16 0.00 0.00
1:53 pm 13:53 Sunny 82 27.8 44 6.7 26 26 N 15 24 29.92 1013 10 16 0.00 0.00
2:53 pm 14:53 Sunny 83 28.3 48 8.9 30 30 N 13 20 29.93 1014 10 16 0.00 0.00
3:53 pm 15:53 Sunny 84 28.9 46 7.8 27 27 N 10 17 29.94 1014 10 16 0.00 0.00
4:53 pm 16:53 Sunny 83 28.3 45 7.2 26 26 NNE 10 17 29.94 1014 10 16 0.00 0.00
5:53 pm 17:53 Sunny 83 28.3 45 7.2 26 26 N 12 19 29.96 1014 10 16 0.00 0.00
6:53 pm 18:53 Sunny 81 27.2 46 7.8 29 29 NNE 10 17 29.96 1015 10 16 0.00 0.00
7:53 pm 19:53 Sunny 77 25 49 9.4 37 37 NE 7 11 29.99 1016 10 16 0.00 0.00
8:53 pm 20:53 Sunny 68 20 52 11.1 57 57 NE 6 9 30.02 1017 10 16 0.00 0.00
9:53 pm 21:53 Clear 64 17.8 50 10 60 60 NE 7 11 30.04 1017 10 16 0.00 0.00
10:53 pm 22:53 Clear 61 16.1 52 11.1 72 72 WSW 3 6 30.06 1018 10 16 0.00 0.00
11:53 pm 23:53 Clear 59 15 50 10 72 72 W 3 6 30.08 1019 10 16 0.00 0.00

Powered by AerisWeather